2023/02/07 00:00:00,60.9, 0.9
2023/02/07 00:10:00,60.9, 0.5
2023/02/07 00:20:00,61.0, 0.7
2023/02/07 00:30:00,61.0, 0.7
2023/02/07 00:40:00,61.0, 0.5
2023/02/07 00:50:00,61.1, 0.7
2023/02/07 01:00:00,61.1, 0.5
2023/02/07 01:10:00,61.2, 0.6
2023/02/07 01:20:00,61.4, 1.1
2023/02/07 01:30:00,61.3, 0.8
2023/02/07 01:40:00,61.3, 1.1
2023/02/07 01:50:00,61.4, 1.0
2023/02/07 02:00:00,61.3, 1.0
2023/02/07 02:10:00,61.3, 1.4
2023/02/07 02:20:00,61.4, 1.0
2023/02/07 02:30:00,61.4, 1.5
2023/02/07 02:40:00,61.1, 1.4
2023/02/07 02:50:00,60.9, 1.6
2023/02/07 03:00:00,60.9, 1.3
2023/02/07 03:10:00,60.8, 0.9
2023/02/07 03:20:00,60.6, 0.9
2023/02/07 03:30:00,60.7, 1.8
2023/02/07 03:40:00,60.6, 1.8
2023/02/07 03:50:00,60.6, 1.5
2023/02/07 04:00:00,60.6, 1.9
2023/02/07 04:10:00,60.7, 1.8
2023/02/07 04:20:00,60.7, 1.5
2023/02/07 04:30:00,60.7, 1.2
2023/02/07 04:40:00,60.6, 1.3
2023/02/07 04:50:00,60.6, 1.2
2023/02/07 05:00:00,60.8, 1.8
2023/02/07 05:10:00,60.8, 1.9
2023/02/07 05:20:00,60.4, 1.0
2023/02/07 05:30:00,59.9, 1.8
2023/02/07 05:40:00,59.8, 1.4
2023/02/07 05:50:00,59.8, 1.8
2023/02/07 06:00:00,59.8, 1.4
2023/02/07 06:10:00,59.8, 2.0
2023/02/07 06:20:00,59.8, 1.8
2023/02/07 06:30:00,59.8, 1.9
2023/02/07 06:40:00,59.8, 1.4
2023/02/07 06:50:00,59.8, 2.0
2023/02/07 07:00:00,59.8, 2.0
2023/02/07 07:10:00,59.8, 1.9
2023/02/07 07:20:00,59.8, 1.9
2023/02/07 07:30:00,59.8, 2.1
2023/02/07 07:40:00,59.9, 2.7
2023/02/07 07:50:00,60.0, 2.3
2023/02/07 08:00:00,59.8, 2.4
2023/02/07 08:10:00,59.8, 2.0
2023/02/07 08:20:00,59.9, 1.8
2023/02/07 08:30:00,59.9, 1.5
2023/02/07 08:40:00,59.9, 2.0
2023/02/07 08:50:00,60.0, 2.4
2023/02/07 09:00:00,60.1, 2.9
2023/02/07 09:10:00,60.1, 3.7
2023/02/07 09:20:00,60.1, 4.6
2023/02/07 09:30:00,60.3, 4.7
2023/02/07 09:40:00,60.2, 5.1
2023/02/07 09:50:00,60.2, 5.1
2023/02/07 10:00:00,60.2, 5.5
2023/02/07 10:10:00,60.3, 5.4
2023/02/07 10:20:00,60.1, 5.6
2023/02/07 10:30:00,60.0, 6.4
2023/02/07 10:40:00,59.8, 7.3
2023/02/07 10:50:00,59.6, 8.8
2023/02/07 11:00:00,59.6,10.7
2023/02/07 11:10:00,59.7,13.7
2023/02/07 11:20:00,59.7,14.2
2023/02/07 11:30:00,59.6,13.1
2023/02/07 11:40:00,59.6,14.1
2023/02/07 11:50:00,59.6,15.7
2023/02/07 12:00:00,59.6,15.7
2023/02/07 12:10:00,59.5,16.1
2023/02/07 12:20:00,59.4,15.0
2023/02/07 12:30:00,59.1,12.8
2023/02/07 12:40:00,59.1,15.0
2023/02/07 12:50:00,58.8,15.7
2023/02/07 13:00:00,58.4,14.4
2023/02/07 13:10:00,58.3,16.1
2023/02/07 13:20:00,58.3,17.3
2023/02/07 13:30:00,58.2,14.0
2023/02/07 13:40:00,58.2,13.0
2023/02/07 13:50:00,58.3,17.4
2023/02/07 14:00:00,58.6,17.4
2023/02/07 14:10:00,58.2,13.4
2023/02/07 14:20:00,57.7,12.9
2023/02/07 14:30:00,57.4,10.1
2023/02/07 14:40:00,57.3, 9.0
2023/02/07 14:50:00,57.5, 7.9
2023/02/07 15:00:00,57.5, 8.5
2023/02/07 15:10:00,57.6, 6.8
2023/02/07 15:20:00,57.8,12.0
2023/02/07 15:30:00,57.4, 7.0
2023/02/07 15:40:00,56.9, 6.0
2023/02/07 15:50:00,56.4, 4.7
2023/02/07 16:00:00,56.3, 4.4
2023/02/07 16:10:00,56.3, 3.7
2023/02/07 16:20:00,56.0, 3.3
2023/02/07 16:30:00,55.8, 3.2
2023/02/07 16:40:00,55.7, 3.1
2023/02/07 16:50:00,55.6, 2.7
2023/02/07 17:00:00,55.3, 2.6
2023/02/07 17:10:00,55.5, 2.2
2023/02/07 17:20:00,55.8, 2.3
2023/02/07 17:30:00,55.8, 2.1
2023/02/07 17:40:00,56.1, 1.8
2023/02/07 17:50:00,56.2, 1.6
2023/02/07 18:00:00,56.0, 1.5
2023/02/07 18:10:00,55.6, 1.7
2023/02/07 18:20:00,55.3, 1.2
2023/02/07 18:30:00,55.3, 1.2
2023/02/07 18:40:00,55.7, 1.3
2023/02/07 18:50:00,55.5, 1.2
2023/02/07 19:00:00,55.4, 1.2
2023/02/07 19:10:00,55.4, 1.2
2023/02/07 19:20:00,55.3, 1.1
2023/02/07 19:30:00,55.3, 1.0
2023/02/07 19:40:00,55.2, 1.2
2023/02/07 19:50:00,55.2, 1.1
2023/02/07 20:00:00,55.2, 1.0
2023/02/07 20:10:00,55.2, 1.3
2023/02/07 20:20:00,55.1, 1.4
2023/02/07 20:30:00,55.0, 1.1
2023/02/07 20:40:00,54.9, 0.9
2023/02/07 20:50:00,54.9, 1.0
2023/02/07 21:00:00,54.9, 0.8
2023/02/07 21:10:00,54.9, 0.7
2023/02/07 21:20:00,54.8, 0.8
2023/02/07 21:30:00,54.8, 0.5
2023/02/07 21:40:00,54.7, 0.4
2023/02/07 21:50:00,54.8, 0.1
2023/02/07 22:00:00,54.7, 0.1
2023/02/07 22:10:00,54.7, 0.0
2023/02/07 22:20:00,54.6, 0.0
2023/02/07 22:30:00,54.6, 0.1
2023/02/07 22:40:00,54.6, 0.0
2023/02/07 22:50:00,54.5, 0.1
2023/02/07 23:00:00,54.4,-0.2
2023/02/07 23:10:00,54.5,-0.2
2023/02/07 23:20:00,54.5,-0.5
2023/02/07 23:30:00,54.4,-0.1
2023/02/07 23:40:00,54.4,-0.1
2023/02/07 23:50:00,54.4,-0.4
